Regional Weather Roundup
Issued by NWS Charleston, SC

Current Version | Previous Version | Graphics & Text | Print | Product List | Glossary On
Versions: 1 2 3 4 5 6 7 8 9 10 11 12 13 14 15 16 17 18 19 20 21 22 23 24 25 26 27 28 29 30 31 32 33 34 35 36 37 38 39 40 41 42 43 44 45 46 47 48 49 50
000
ASUS42 KCHS 211112
RWRCHS

Regional Weather Roundup
National Weather Service Charleston SC
700 AM EDT SAT APR 21 2018

NOTE: "fair" indicates few or no clouds below 12,000 feet with no
significant weather and/or obstructions to visibility.

Not all stations are quality controlled. Use data with caution,
especially dewpoint observations.

SCZ027-030-031-034>040-042>050-211200-
...Southeast South Carolina...

CITY           SKY/WX    TMP DP  RH WIND       PRES   REMARKS
N Charleston   FAIR      47  43  86 NE7       30.34R
Waterfront Prk NOT AVBL
Mount Pleasant FAIR      46  45  93 CALM      30.34S
Johns Island   FAIR      57  43  58 NE9       30.33S
Pinopolis        N/A     54  48  82 E8        30.26R
Moncks Corner  FAIR      45  41  87 NE3       30.36R
Summerville    FAIR      39  37  93 CALM      30.36R
Beaufort MCAS  MOCLDY    52  47  83 NE5       30.32R
Beaufort Arpt  FAIR      55  48  76 NE9       30.32R
Hilton Head Is MOCLDY    61  46  59 NE8G17    30.31R
Walterboro     FAIR      37  37 100 N3        30.36R
Allendale      FAIR      45  43  93 CALM      30.34R

...Southern Midlands and Pee Dee...

CITY           SKY/WX    TMP DP  RH WIND       PRES   REMARKS
Georgetown     FAIR      41  41 100 CALM      30.37R
Kingstree      FAIR      37  36  93 CALM      30.37R
Orangeburg     FAIR      41  39  93 CALM      30.36R
Barnwell       FAIR      39  37  93 CALM      30.36R
Aiken          FAIR      36  34  93 CALM      30.39R
Manning        FAIR      36  34  93 CALM      30.37R
Columbia       FAIR      39  37  92 W3        30.38R
Sumter         FAIR      40  36  87 N3        30.36R
Florence       FAIR      42  40  92 N6        30.39R
Myrtle Beach   FAIR      47  42  83 N3        30.38R
N Myrtle Beach FAIR      42  41  96 NE5       30.37R

$$

GAZ063-065-086>088-099>101-113>116-118-119-134>141-150-211200-
...Southeast Georgia...

CITY           SKY/WX    TMP DP  RH WIND       PRES   REMARKS
Savannah Arpt  MOCLDY    54  47  77 N8        30.31R
Hunter AAF     MOCLDY    60  46  60 NE5       30.27R
Fort Stewart   MOCLDY    52  47  81 NE8       30.27R
Statesboro     FAIR      44  32  61 CALM      30.34R
Sylvania       FAIR      46  45  93 E5        30.34R
Claxton        FAIR      48  46  95 CALM      30.31R

...CSRA, Central and far Southeast Georgia...

CITY           SKY/WX    TMP DP  RH WIND       PRES   REMARKS
Thomson        FAIR      35  34  95 CALM      30.41R
Augusta-Bush   FAIR      37  36  96 CALM      30.36R
Augusta-Daniel FAIR      50  41  71 NE6       30.36R
Swainsboro     FAIR      45  43  93 NE5       30.35R
Vidalia        FAIR      50  46  87 NE3       30.32R
Eastman        FAIR      48  40  74 NE6       30.33R
Hazlehurst     FAIR      52  46  80 NE5       30.28R
Alma           CLOUDY    56  48  74 VRB3      30.27R
Waycross       CLOUDY    58  49  73 E3        30.26R
Jesup          NOT AVBL
Baxley         CLOUDY    52  50  93 NE6       30.28R
Brunswick      CLOUDY    63  52  67 NE9       30.27R
Saint Simons   CLOUDY    64  55  72 NE10G18   30.25R

$$

SCZ027-028-034-036>038-045-046-048>050-GAZ119-141-211200-
...Lake and Supplemental Coastal Observations...

STATION/POSITION TIME  TEMP    WIND        PRES    WAVE   SWELL
                       AIR SEA DIR/SP/G            HT/PER HT/PER/DIR
                 (UTC) (F)     (DEG/KT/KT) (MB)    (FT/S) (FT/S/D)
Winyah Bay       0945   59      80/  9     1027.0
Lake Murray      1020   46      CALM  /  3 1027.8
ACE Basin NERRS  0945   52        CALM       N/A
Fort Pulaski     1036   62 65   70/ 16/ 19 1025.8R
Sapelo Island    1000   62      50/ 10     1024.0

$$

ANZ835-935-AMZ111-154-330-350-352-354-370-450-454-472-211200-
...C-MAN and Buoy Observations...

STATION/POSITION TIME  TEMP    WIND        PRES    WAVE   SWELL
                       AIR SEA DIR/SP/G            HT/PER HT/PER/DIR
                 (UTC) (F)     (DEG/KT/KT) (MB)    (FT/S) (FT/S/D)
Buoy 41004       1050   64 67   70/ 17/ 21 1026.3R   5/ 9   2/100/ 9
Buoy 41008       1050   65 64   70/ 17/ 21 1023.9R   6/ 6   2/110/14
Folly Beach CMAN 1000   61      70/ 18/ 21 1027.0R
Capers Nearshore 1008   62 63   80/ 16/ 21 1026.8R
Fripp Nearshore  1008   62 63   70/ 16/ 23 1025.3R


STATION/POSITION TIME  TEMP    WIND        PRES    WAVE   SWELL
                       AIR SEA DIR/SP/G            HT/PER HT/PER/DIR
                 (UTC) (F)     (DEG/KT/KT) (MB)    (FT/S) (FT/S/D)
5E St. Marys GA  1030      66                N/A     6/ 6   2/ 70/11
Frying Pan Buoy  1050   62 66   60/ 14/ 17 1027.8R   3/ 8   2/ 90/ 8
Buoy 41025       1100   56 68   10/ 12/ 16 1029.8
Cape Lookout NC  1000           60/ 11/ 12 1029.0R
Buoy 41002       1050   62 71   40/ 12/ 17 1026.1R   5/ 8   3/ 20/ 8
Buoy 41010       1050   72 74   70/ 21/ 25 1021.9R  10/ 8   2/ 20/13
St Augustine FL  1100   69 66   80/  7/  8 1021.9R


$$




USA.gov is the U.S. government's official web portal to all federal, state and local government web resources and services.